• In Uzbekistan
  • List of Countries
  • For 7 days
  • Water Temperature
  • Satellite Maps
  • Weather Map
  • Weather Widgets
  • user-avatar
    Login

    Hourly Weather Pinsa

    Today, 25 April, Thursday

    Time Temperature Precipitation Wind Pressure Humidity
    00:00 +37°C° 0 mm 3 mps 734 mmHg 38%
    01:00 +36°C° 0 mm 4 mps 734 mmHg 44%
    02:00 +35°C° 0 mm 5 mps 734 mmHg 50%
    03:00 +33°C° 0 mm 6 mps 733 mmHg 55%
    04:00 +34°C° 0 mm 4 mps 733 mmHg 53%
    05:00 +34°C° 0 mm 3 mps 733 mmHg 51%
    06:00 +33°C° 0 mm 1 mps 733 mmHg 48%
    07:00 +34°C° 0 mm 1 mps 734 mmHg 46%
    08:00 +34°C° 0 mm 1 mps 735 mmHg 43%
    09:00 +33°C° 0 mm 0 mps 735 mmHg 40%
    10:00 +36°C° 0 mm 1 mps 735 mmHg 36%
    11:00 +38°C° 0 mm 2 mps 735 mmHg 32%
    12:00 +39°C° 0 mm 3 mps 735 mmHg 28%
    13:00 +39°C° 0 mm 3 mps 734 mmHg 26%
    14:00 +40°C° 0 mm 3 mps 733 mmHg 23%
    15:00 +42°C° 0 mm 3 mps 733 mmHg 21%
    16:00 +40°C° 0 mm 3 mps 732 mmHg 22%
    17:00 +40°C° 0 mm 3 mps 732 mmHg 22%
    18:00 +40°C° 0 mm 3 mps 732 mmHg 23%
    19:00 +39°C° 0 mm 3 mps 732 mmHg 24%
    20:00 +39°C° 0 mm 3 mps 733 mmHg 25%
    21:00 +38°C° 0 mm 2 mps 733 mmHg 26%
    22:00 +38°C° 0 mm 3 mps 733 mmHg 27%
    23:00 +38°C° 0 mm 3 mps 733 mmHg 27%

    Tomorrow, 26 April, Friday

    Time Temperature Precipitation Wind Pressure Humidity
    00:00 +37°C° 0 mm 3 mps 733 mmHg 28%
    01:00 +37°C° 0 mm 3 mps 733 mmHg 28%
    02:00 +36°C° 0 mm 3 mps 733 mmHg 28%
    03:00 +36°C° 0 mm 3 mps 732 mmHg 28%
    04:00 +36°C° 0 mm 3 mps 732 mmHg 28%
    05:00 +36°C° 0 mm 3 mps 732 mmHg 28%
    06:00 +35°C° 0 mm 3 mps 732 mmHg 29%
    07:00 +36°C° 0 mm 4 mps 733 mmHg 28%
    08:00 +37°C° 0 mm 4 mps 733 mmHg 27%
    09:00 +40°C° 0 mm 5 mps 734 mmHg 27%
    10:00 +41°C° 0 mm 5 mps 733 mmHg 22%
    11:00 +43°C° 0 mm 5 mps 733 mmHg 18%
    12:00 +44°C° 0 mm 4 mps 733 mmHg 14%
    13:00 +45°C° 0 mm 4 mps 732 mmHg 13%
    14:00 +45°C° 0 mm 4 mps 731 mmHg 11%
    15:00 +47°C° 0 mm 4 mps 730 mmHg 10%
    16:00 +47°C° 0 mm 4 mps 730 mmHg 9%
    17:00 +45°C° 0 mm 4 mps 730 mmHg 9%
    18:00 +45°C° 0 mm 4 mps 730 mmHg 9%
    19:00 +44°C° 0 mm 4 mps 730 mmHg 10%
    20:00 +43°C° 0 mm 4 mps 731 mmHg 11%
    21:00 +42°C° 0 mm 4 mps 731 mmHg 13%
    22:00 +41°C° 0 mm 4 mps 731 mmHg 13%
    23:00 +41°C° 0 mm 5 mps 731 mmHg 13%

    Day after tomorrow, 27 April, Saturday

    Time Temperature Precipitation Wind Pressure Humidity
    00:00 +41°C° 0 mm 5 mps 731 mmHg 14%
    01:00 +40°C° 0 mm 5 mps 730 mmHg 14%
    02:00 +39°C° 0 mm 5 mps 729 mmHg 14%
    03:00 +37°C° 0 mm 5 mps 729 mmHg 14%
    04:00 +37°C° 0 mm 4 mps 729 mmHg 14%
    05:00 +36°C° 0 mm 4 mps 729 mmHg 14%
    06:00 +36°C° 0 mm 4 mps 729 mmHg 14%
    07:00 +39°C° 0 mm 5 mps 730 mmHg 12%
    08:00 +42°C° 0 mm 6 mps 731 mmHg 10%
    09:00 +45°C° 0 mm 8 mps 731 mmHg 7%
    10:00 +46°C° 0 mm 7 mps 731 mmHg 7%
    11:00 +47°C° 0 mm 6 mps 731 mmHg 6%
    12:00 +48°C° 0 mm 5 mps 731 mmHg 5%
    13:00 +49°C° 0 mm 5 mps 730 mmHg 5%
    14:00 +49°C° 0 mm 4 mps 729 mmHg 5%
    15:00 +49°C° 0 mm 4 mps 728 mmHg 5%
    16:00 +47°C° 0 mm 3 mps 728 mmHg 5%
    17:00 +47°C° 0 mm 3 mps 728 mmHg 6%
    18:00 +46°C° 0 mm 2 mps 729 mmHg 6%
    19:00 +45°C° 0 mm 2 mps 729 mmHg 7%
    20:00 +43°C° 0 mm 2 mps 730 mmHg 8%
    21:00 +42°C° 0 mm 1 mps 730 mmHg 8%
    22:00 +41°C° 0 mm 2 mps 730 mmHg 9%
    23:00 +40°C° 0 mm 2 mps 730 mmHg 9%

    28 April, Sunday

    Time Temperature Precipitation Wind Pressure Humidity
    00:00 +39°C° 0 mm 2 mps 730 mmHg 9%
    01:00 +39°C° 0 mm 2 mps 729 mmHg 10%
    02:00 +38°C° 0 mm 2 mps 729 mmHg 11%
    03:00 +38°C° 0 mm 2 mps 728 mmHg 12%
    04:00 +37°C° 0 mm 2 mps 729 mmHg 15%
    05:00 +37°C° 0 mm 3 mps 729 mmHg 17%
    06:00 +37°C° 0 mm 3 mps 730 mmHg 20%
    07:00 +38°C° 0 mm 3 mps 730 mmHg 19%
    08:00 +39°C° 0 mm 3 mps 731 mmHg 17%
    09:00 +40°C° 0 mm 3 mps 732 mmHg 15%
    10:00 +42°C° 0 mm 3 mps 731 mmHg 17%
    11:00 +43°C° 0 mm 4 mps 731 mmHg 19%
    12:00 +44°C° 0 mm 4 mps 731 mmHg 21%
    13:00 +45°C° 0 mm 4 mps 730 mmHg 19%
    14:00 +45°C° 0 mm 3 mps 729 mmHg 18%
    15:00 +46°C° 0 mm 3 mps 728 mmHg 16%
    16:00 +46°C° 0 mm 2 mps 729 mmHg 16%
    17:00 +46°C° 0 mm 2 mps 729 mmHg 16%
    18:00 +45°C° 0 mm 1 mps 729 mmHg 15%
    19:00 +44°C° 0 mm 1 mps 730 mmHg 16%
    20:00 +44°C° 0 mm 1 mps 730 mmHg 17%
    21:00 +43°C° 0 mm 1 mps 731 mmHg 18%
    22:00 +43°C° 0 mm 2 mps 730 mmHg 19%
    23:00 +42°C° 0 mm 2 mps 730 mmHg 20%

    29 April, Monday

    Time Temperature Precipitation Wind Pressure Humidity
    00:00 +43°C° 0 mm 3 mps 730 mmHg 21%
    01:00 +42°C° 0 mm 4 mps 730 mmHg 23%
    02:00 +42°C° 0 mm 5 mps 729 mmHg 26%
    03:00 +41°C° 0 mm 5 mps 729 mmHg 28%
    04:00 +41°C° 0 mm 5 mps 729 mmHg 30%
    05:00 +40°C° 0 mm 5 mps 730 mmHg 32%
    06:00 +39°C° 0 mm 5 mps 730 mmHg 34%
    07:00 +40°C° 0 mm 6 mps 731 mmHg 33%
    08:00 +41°C° 0 mm 6 mps 732 mmHg 32%
    09:00 +42°C° 0 mm 6 mps 732 mmHg 30%
    10:00 +44°C° 0 mm 6 mps 732 mmHg 30%
    11:00 +44°C° 0 mm 6 mps 732 mmHg 29%
    12:00 +45°C° 0 mm 6 mps 731 mmHg 28%
    13:00 +46°C° 0 mm 5 mps 730 mmHg 26%
    14:00 +45°C° 0 mm 4 mps 729 mmHg 24%
    15:00 +46°C° 0 mm 3 mps 729 mmHg 21%
    16:00 +45°C° 0 mm 3 mps 729 mmHg 21%
    17:00 +45°C° 0 mm 2 mps 729 mmHg 22%
    18:00 +45°C° 0 mm 2 mps 729 mmHg 22%
    19:00 +43°C° 0 mm 1 mps 730 mmHg 22%
    20:00 +43°C° 0 mm 1 mps 730 mmHg 23%
    21:00 +42°C° 0 mm 1 mps 731 mmHg 24%
    22:00 +42°C° 0 mm 1 mps 731 mmHg 25%
    23:00 +41°C° 0 mm 1 mps 730 mmHg 26%

    30 April, Tuesday

    Time Temperature Precipitation Wind Pressure Humidity
    00:00 +41°C° 0 mm 1 mps 730 mmHg 27%
    01:00 +40°C° 0 mm 3 mps 730 mmHg 29%
    02:00 +40°C° 0 mm 4 mps 729 mmHg 31%
    03:00 +40°C° 0 mm 6 mps 729 mmHg 34%
    04:00 +38°C° 0 mm 7 mps 730 mmHg 41%
    05:00 +37°C° 0 mm 8 mps 731 mmHg 49%
    06:00 +34°C° 0 mm 9 mps 732 mmHg 56%
    07:00 +35°C° 0 mm 9 mps 732 mmHg 52%
    08:00 +35°C° 0 mm 8 mps 733 mmHg 48%
    09:00 +37°C° 0 mm 8 mps 733 mmHg 44%
    10:00 +39°C° 0 mm 7 mps 733 mmHg 38%
    11:00 +41°C° 0 mm 7 mps 732 mmHg 32%
    12:00 +44°C° 0 mm 6 mps 732 mmHg 27%
    13:00 +44°C° 0 mm 6 mps 731 mmHg 25%
    14:00 +45°C° 0 mm 5 mps 731 mmHg 23%
    15:00 +45°C° 0 mm 4 mps 730 mmHg 22%
    16:00 +45°C° 0 mm 4 mps 730 mmHg 22%
    17:00 +44°C° 0 mm 4 mps 730 mmHg 22%
    18:00 +44°C° 0 mm 4 mps 730 mmHg 22%
    19:00 +43°C° 0 mm 4 mps 730 mmHg 24%
    20:00 +43°C° 0 mm 3 mps 730 mmHg 25%
    21:00 +42°C° 0 mm 3 mps 731 mmHg 27%
    22:00 +42°C° 0 mm 4 mps 730 mmHg 30%
    23:00 +41°C° 0 mm 4 mps 730 mmHg 34%
    Show more